Weather History for Phoenix, AZ

Change the Weather History Date:

Tuesday, June 12, 2012

  Actual Average Record
Temperature  
Mean Temperature 93 °F 90 °F  
Max Temperature 107 °F 103 °F 112 °F (1974)
Min Temperature 79 °F 77 °F 59 °F (1913)
Degree Days  
Heating Degree Days 0 0  
Month to date heating degree days 0 0  
Since 1 June heating degree days 0 0  
Since 1 July heating degree days 837 935  
Cooling Degree Days 28 25  
Month to date cooling degree days 307 281  
Year to date cooling degree days 1359 1167  
Since 1 June cooling degree days 307 281  
Growing Degree Days 43 (Base 50)    
Moisture  
Dew Point 31 °F    
Average Humidity 15    
Maximum Humidity 23    
Minimum Humidity 6    
Precipitation  
Precipitation 0.00 in 0.00 in 0.92 in (1955)
Month to date precipitation 0.00 0.00  
Year to date precipitation 0.36 3.21  
Snow  
Snow 0.00 in - - ()
Month to date snowfall 0.0  
Year to date snowfall 0.0  
Since 1 July snowfall 0.0  
Snow Depth 0.00 in    
Sea Level Pressure  
Sea Level Pressure 29.75 in    
Wind  
Wind Speed 7 mph (West)    
Max Wind Speed 16 mph    
Max Gust Speed 20 mph    
Visibility 10 miles    
Events      
T = Trace of Precipitation, MM = Missing Value Source: NWS Daily Summary

Daily Weather History Graph

Daily Weather History Graph

Search for Another Location

Airport:

Trip Planner

Search our weather history database for the weather conditions in past years. The results will help you decide how hot, cold, wet, or windy it might be!

Date:

Astronomy

Jun. 12, 2012 Rise Set
Actual Time 5:17 AM MST 7:38 PM MST
Civil Twilight 4:48 AM MST 8:07 PM MST
Nautical Twilight 4:13 AM MST 8:42 PM MST
Astronomical Twilight 3:34 AM MST 9:21 PM MST
Moon 12:49 AM MST (6/12) 1:44 PM MST (6/12)
Length of Visible Light 15h 18m
Length of Day
14h 20m
Last Quarter, 37% of the Moon is Illuminated
Jun 12
Last Quarter
Jun 19
New
Jun 26
First Quarter
Jul 3
Full
Jul 10
Last Quarter

Hourly Weather History & Observations

Time (MST) Temp. Dew Point Humidity Pressure Visibility Wind Dir Wind Speed Gust Speed Precip Events Conditions
12:51 AM 89.1 °F 33.1 °F 14% 29.78 in 10.0 mi NW 6.9 mph - N/A   Clear
1:51 AM 88.0 °F 32.0 °F 14% 29.78 in 10.0 mi NW 5.8 mph - N/A   Clear
2:51 AM 82.9 °F 35.1 °F 18% 29.78 in 10.0 mi Calm Calm - N/A   Clear
3:51 AM 82.0 °F 37.0 °F 20% 29.79 in 10.0 mi ESE 3.5 mph - N/A   Clear
4:51 AM 81.0 °F 37.0 °F 21% 29.80 in 10.0 mi East 4.6 mph - N/A   Partly Cloudy
5:51 AM 80.1 °F 39.0 °F 23% 29.81 in 10.0 mi East 8.1 mph - N/A   Partly Cloudy
6:51 AM 81.0 °F 35.1 °F 19% 29.83 in 10.0 mi ESE 8.1 mph - N/A   Partly Cloudy
7:51 AM 84.9 °F 33.1 °F 16% 29.84 in 10.0 mi East 5.8 mph - N/A   Partly Cloudy
8:51 AM 89.1 °F 33.1 °F 14% 29.84 in 10.0 mi East 5.8 mph - N/A   Partly Cloudy
9:51 AM 93.0 °F 33.1 °F 12% 29.83 in 10.0 mi Variable 3.5 mph - N/A   Scattered Clouds
10:51 AM 96.1 °F 32.0 °F 10% 29.81 in 10.0 mi SSE 4.6 mph - N/A   Partly Cloudy
11:51 AM 99.0 °F 30.9 °F 9% 29.79 in 10.0 mi Variable 3.5 mph - N/A   Scattered Clouds
12:51 PM 102.9 °F 30.0 °F 8% 29.76 in 10.0 mi Variable 5.8 mph - N/A   Scattered Clouds
1:51 PM 105.8 °F 28.4 °F 7% 29.80 in 10.0 mi Variable 4.6 mph - N/A   Scattered Clouds
2:51 PM 104.0 °F 26.1 °F 6% 29.71 in 10.0 mi West 10.4 mph - N/A   Scattered Clouds
3:51 PM 106.0 °F 28.0 °F 7% 29.69 in 10.0 mi West 12.7 mph 18.4 mph N/A   Scattered Clouds
4:51 PM 105.1 °F 27.0 °F 6% 29.68 in 10.0 mi NW 8.1 mph 17.3 mph N/A   Scattered Clouds
5:51 PM 104.0 °F 26.1 °F 6% 29.67 in 10.0 mi West 8.1 mph 18.4 mph N/A   Scattered Clouds
6:51 PM 102.9 °F 26.1 °F 7% 29.66 in 10.0 mi WNW 11.5 mph 18.4 mph N/A   Partly Cloudy
7:51 PM 102.0 °F 26.1 °F 7% 29.67 in 10.0 mi WNW 10.4 mph - N/A   Partly Cloudy
8:51 PM 98.1 °F 27.0 °F 8% 29.68 in 10.0 mi WSW 5.8 mph - N/A   Partly Cloudy
9:51 PM 93.9 °F 28.0 °F 10% 29.69 in 10.0 mi WSW 6.9 mph - N/A   Partly Cloudy
10:51 PM 93.0 °F 28.0 °F 10% 29.69 in 10.0 mi West 6.9 mph - N/A   Partly Cloudy
11:51 PM 88.0 °F 30.0 °F 12% 29.68 in 10.0 mi West 4.6 mph - N/A   Clear